[[{"header":{"parameterUnit":"m.s-1","parameterCategory":1,"la1":30.2992,"la2":30.254,"lo1":-89.0895,"lo2":-89.0443,"dy":0.0025,"dx":0.0025,"nx":19,"ny":19,"refTime":"2026-04-02T21:00:00:Z","depth":0,"parameterNumber":2,"parameterNumberName":"U-component_of_WINDS"},"data":[0,0,0,-3.5419,-3.5422,-3.5549,-3.5549,-3.5721,-3.5722,0,0,0,0,0,0,0,0,0,0,0,-3.5387,-3.5388,-3.5419,-3.5423,-3.5549,-3.5549,-3.572,-3.5722,0,0,0,0,0,0,0,0,0,0,0,-3.5386,-3.5388,-3.5389,-3.5423,-3.5549,-3.5549,-3.572,-3.5621,0,0,0,0,0,0,0,0,0,0,-3.5497,-3.5471,-3.5387,-3.5389,-3.5424,-3.5549,-3.555,-3.5617,-3.5628,-3.5667,0,-3.5703,0,-3.5715,-3.5734,-3.5735,0,0,0,-3.5419,-3.5462,-3.5492,-3.539,-3.5425,-3.5549,-3.5491,-3.5623,-3.5635,-3.5682,-3.5705,-3.5711,-3.5718,-3.5736,-3.5736,-3.5973,-3.5974,0,0,-3.5412,-3.5412,-3.5483,-3.55,-3.548,-3.5487,-3.5495,-3.563,-3.5656,-3.5706,-3.5715,-3.5721,-3.5737,-3.5738,-3.5972,-3.5974,0,0,0,-3.5394,-3.5408,-3.5434,-3.5493,-3.5515,-3.5491,-3.55,-3.565,-3.5658,-3.5717,-3.5723,-3.5738,-3.574,-3.5971,-3.5973,-3.6034,0,0,0,-3.539,-3.5397,-3.5431,-3.5432,-3.5513,-3.5584,-3.5517,-3.5649,-3.5664,-3.5722,-3.5738,-3.5742,-3.5969,-3.5972,-3.6029,-3.6063,0,0,0,-3.5377,-3.5396,-3.5416,-3.5432,-3.5486,-3.5582,-3.5598,-3.5652,-3.5668,-3.5735,-3.5742,-3.5968,-3.5971,-3.6025,-3.6056,-3.6124,0,0,0,-3.5363,-3.5469,-3.5417,-3.5538,-3.5485,-3.5619,-3.5597,-3.5697,-3.5762,-3.5739,-3.5969,-3.5972,-3.6024,-3.6052,-3.612,-3.6181,-3.6207,0,0,-3.5497,-3.5486,-3.5557,-3.5513,-3.5656,-3.56,-3.5752,-3.5812,-3.5819,-3.5922,-3.5927,-3.6031,-3.6056,-3.6123,-3.6353,-3.6373,0,0,0,-3.5599,-3.565,-3.5688,-3.5749,-3.5797,-3.584,-3.5877,-3.5899,-3.5986,-3.5871,-3.6075,-3.6089,-3.6129,-3.6158,-3.6176,-3.621,-3.5986,-3.5986,-3.5986,-3.5789,-3.5791,-3.5908,-3.5926,-3.5986,-3.6022,-3.6071,-3.6107,-3.6093,-3.6141,-3.6171,-3.631,-3.6344,-3.6357,-3.6393,-3.6205,-3.6205,-3.6205,-3.6205,-3.5984,-3.6056,-3.6034,-3.614,-3.6142,-3.6232,-3.6271,-3.6258,-3.6342,-3.6288,-3.6323,-3.6262,-3.638,-3.6411,-3.621,-3.6209,-3.6209,-3.6208,-3.6208,-3.6108,-3.6143,-3.6167,-3.6255,-3.6324,-3.6338,-3.642,-3.6419,-3.642,-3.6455,-3.6486,-3.6485,-3.6483,-3.647,-3.647,-3.6471,-3.6471,-3.6472,-3.6472,-3.6226,-3.6251,-3.6319,-3.6379,-3.6417,-3.6469,-3.6507,-3.6545,-3.6588,-3.6582,-3.6582,-3.6562,-3.6391,-3.6347,-3.6479,-3.6478,-3.6477,-3.6476,-3.6476,-3.6421,-3.6377,-3.6482,-3.6521,-3.659,-3.6657,-3.6656,-3.6735,-3.6767,-3.6807,-3.6781,-3.6654,-3.6642,-3.6629,-3.6592,-3.678,-3.678,-3.678,-3.678,-3.6525,-3.6519,-3.6625,-3.6687,-3.6748,-3.6758,-3.6877,-3.6907,-3.6932,-3.6952,-3.6926,-3.6878,-3.6864,-3.686,-3.6841,-3.6807,-3.7046,-3.7046,-3.7046,-3.6645,-3.6645,-3.6745,-3.6768,-3.6822,-3.6869,-3.698,-3.7054,-3.7073,-3.7057,-3.6968,-3.6957,-3.688,-3.6855,-3.6836,-3.6806,-3.6744,0,0]},{"header":{"parameterUnit":"m.s-1","parameterCategory":1,"la1":30.2992,"la2":30.254,"lo1":-89.0895,"lo2":-89.0443,"dy":0.0025,"dx":0.0025,"nx":19,"ny":19,"refTime":"2026-04-02T21:00:00:Z","depth":0,"parameterNumber":3,"parameterNumberName":"V-component_of_WINDS"},"data":[0,0,0,2.6134,2.6137,2.6238,2.6239,2.6366,2.6367,0,0,0,0,0,0,0,0,0,0,0,2.6103,2.6104,2.6134,2.6137,2.6238,2.6239,2.6366,2.6367,0,0,0,0,0,0,0,0,0,0,0,2.6102,2.6103,2.6104,2.6137,2.6238,2.6239,2.6366,2.629,0,0,0,0,0,0,0,0,0,0,2.6192,2.6161,2.6103,2.6104,2.6138,2.6238,2.6239,2.6286,2.6295,2.6319,0,2.6341,0,2.6356,2.6376,2.6376,0,0,0,2.6138,2.6154,2.6183,2.6105,2.6139,2.6238,2.6193,2.6291,2.63,2.633,2.6343,2.6347,2.6358,2.6377,2.6377,2.6517,2.6518,0,0,2.6132,2.612,2.6176,2.6189,2.6173,2.6189,2.6196,2.6297,2.6309,2.6343,2.635,2.636,2.6377,2.6378,2.6517,2.6517,0,0,0,2.6115,2.6116,2.6143,2.6184,2.6202,2.6192,2.62,2.6305,2.6314,2.6352,2.6362,2.6378,2.638,2.6516,2.6517,2.6536,0,0,0,2.6112,2.6106,2.614,2.6134,2.62,2.6255,2.6205,2.6307,2.6319,2.6361,2.6378,2.6381,2.6515,2.6517,2.6534,2.6547,0,0,0,2.6097,2.6105,2.6119,2.6133,2.6176,2.6253,2.6269,2.631,2.6325,2.6376,2.6381,2.6515,2.6516,2.6533,2.6544,2.6581,0,0,0,2.6077,2.6133,2.6119,2.6186,2.6175,2.6265,2.6268,2.6335,2.6381,2.6379,2.6516,2.6517,2.6532,2.6542,2.6579,2.661,2.6622,0,0,2.6142,2.6141,2.6182,2.6172,2.626,2.625,2.6342,2.6395,2.641,2.6481,2.6484,2.6535,2.6544,2.6581,2.6692,2.6701,0,0,0,2.6198,2.6227,2.6253,2.6297,2.634,2.6378,2.6418,2.6438,2.6499,2.6444,2.6559,2.6564,2.6586,2.6602,2.661,2.663,2.6523,2.6523,2.6523,2.6272,2.629,2.6359,2.639,2.6432,2.6474,2.6511,2.6545,2.6549,2.6576,2.6597,2.6662,2.668,2.6686,2.6707,2.6615,2.6615,2.6615,2.6615,2.6369,2.6414,2.642,2.6489,2.6508,2.6567,2.661,2.6612,2.6669,2.6647,2.6668,2.6643,2.6696,2.6715,2.6617,2.6616,2.6616,2.6616,2.6616,2.642,2.6445,2.6469,2.6535,2.6584,2.6613,2.6669,2.6684,2.6698,2.6718,2.6743,2.6742,2.6744,2.6729,2.6729,2.6729,2.6729,2.673,2.673,2.6463,2.649,2.6535,2.6586,2.6617,2.666,2.6704,2.6735,2.6773,2.678,2.678,2.6783,2.6697,2.6676,2.6733,2.6733,2.6732,2.6732,2.6732,2.6555,2.6537,2.6607,2.6638,2.67,2.6749,2.6768,2.683,2.6858,2.6885,2.6884,2.6818,2.6818,2.6812,2.6795,2.6879,2.6879,2.6879,2.688,2.6598,2.66,2.6676,2.6725,2.6775,2.6799,2.6878,2.6914,2.6948,2.6966,2.6956,2.6934,2.6927,2.6931,2.6923,2.6906,2.7018,2.7018,2.7018,2.6657,2.6664,2.6728,2.6762,2.6812,2.6855,2.6931,2.6987,2.7022,2.7024,2.6982,2.6976,2.694,2.6928,2.6928,2.6914,2.6885,0,0]}]]